Novato, CA

7:01 PM PDT on March 22, 2017 (GMT -0700)
Gnoss

Weather History for KDVO - March, 2014

Change the Weather History Date:

Sunday, March 23, 2014

  Actual Average (KAPC) Record (KAPC)
Temperature  
Mean Temperature 56 °F -  
Max Temperature 73 °F 67 °F 73 °F (2007)
Min Temperature 39 °F 44 °F 29 °F (2009)
Degree Days  
Heating Degree Days 9    
Growing Degree Days 6 (Base 50)    
Moisture  
Dew Point 45 °F    
Average Humidity 78    
Maximum Humidity 100    
Minimum Humidity 44    
Precipitation  
Precipitation 0.00 in - - ()
Sea Level Pressure  
Sea Level Pressure 30.13 in    
Wind  
Wind Speed 3 mph (North)    
Max Wind Speed 14 mph    
Max Gust Speed -    
Visibility 10 miles    
Events      
Averages and records for this station are not official NWS values.
T = Trace of Precipitation, MM = Missing Value Source: NWS Daily Summary

Daily Weather History Graph

Daily Weather History Graph

Search for Another Location

Airport or City:

Trip Planner

Search our weather history database for the weather conditions in past years. The results will help you decide how hot, cold, wet, or windy it might be!

Date:

Astronomy

Mar. 23, 2014 Rise Set
Actual Time 7:08 AM PDT 7:25 PM PDT
Civil Twilight 6:42 AM PDT 7:51 PM PDT
Nautical Twilight 6:11 AM PDT 8:22 PM PDT
Astronomical Twilight 5:40 AM PDT 8:53 PM PDT
Moon 1:42 AM PDT 12:00 PM PDT
Length of Visible Light 13h 08m
Length of Day
12h 16m
Waning Gibbous, 53% of the Moon is Illuminated
Mar 23
Waning Gibbous
Mar 23
Last Quarter
Mar 30
New
Apr 7
First Quarter
Apr 15
Full

Hourly Weather History & Observations

Time (PDT) Temp. Windchill Dew Point Humidity Pressure Visibility Wind Dir Wind Speed Gust Speed Precip Events Conditions
12:15 AM 44.6 °F - 42.8 °F 93% 30.13 in 10.0 mi Calm Calm - N/A   Clear
12:35 AM 44.6 °F - 41.0 °F 87% 30.13 in 10.0 mi Calm Calm - N/A   Clear
12:55 AM 44.6 °F - 42.8 °F 93% 30.12 in 10.0 mi Calm Calm - N/A   Clear
1:15 AM 44.6 °F - 41.0 °F 87% 30.13 in 10.0 mi Calm Calm - N/A   Clear
1:35 AM 44.6 °F - 41.0 °F 87% 30.13 in 10.0 mi Calm Calm - N/A   Clear
1:55 AM 42.8 °F - 39.2 °F 87% 30.13 in 10.0 mi Calm Calm - N/A   Clear
2:15 AM 44.6 °F - 41.0 °F 87% 30.13 in 10.0 mi Calm Calm - N/A   Clear
2:35 AM 41.0 °F - 41.0 °F 100% 30.13 in 10.0 mi Calm Calm - N/A   Clear
2:55 AM 42.8 °F - 41.0 °F 93% 30.13 in 10.0 mi Calm Calm - N/A   Clear
3:15 AM 41.0 °F - 39.2 °F 93% 30.13 in 10.0 mi Calm Calm - N/A   Clear
3:35 AM 41.0 °F 39.0 °F 39.2 °F 93% 30.13 in 10.0 mi South 3.5 mph - N/A   Clear
3:55 AM 41.0 °F - 41.0 °F 100% 30.13 in 10.0 mi Calm Calm - N/A   Clear
4:15 AM 41.0 °F - 41.0 °F 100% 30.13 in 10.0 mi Calm Calm - N/A   Clear
4:35 AM 41.0 °F - 39.2 °F 93% 30.13 in 10.0 mi Calm Calm - N/A   Clear
4:55 AM 41.0 °F - 41.0 °F 100% 30.13 in 10.0 mi Calm Calm - N/A   Clear
5:15 AM 39.2 °F - 39.2 °F 100% 30.13 in 10.0 mi Calm Calm - N/A   Clear
5:35 AM 39.2 °F - 39.2 °F 100% 30.14 in 10.0 mi Calm Calm - N/A   Clear
5:55 AM 41.0 °F - 39.2 °F 93% 30.14 in 10.0 mi Calm Calm - N/A   Clear
6:15 AM 41.0 °F - 41.0 °F 100% 30.15 in 9.0 mi Calm Calm - N/A   Clear
6:35 AM 41.0 °F - 39.2 °F 93% 30.15 in 9.0 mi Calm Calm - N/A   Clear
6:55 AM 39.2 °F - 37.4 °F 93% 30.15 in 10.0 mi Calm Calm - N/A   Clear
7:15 AM 41.0 °F - 39.2 °F 93% 30.16 in 10.0 mi Calm Calm - N/A   Clear
7:35 AM 41.0 °F 39.0 °F 39.2 °F 93% 30.16 in 10.0 mi SW 3.5 mph - N/A   Clear
7:55 AM 42.8 °F 41.1 °F 41.0 °F 93% 30.17 in 10.0 mi WSW 3.5 mph - N/A   Clear
8:15 AM 44.6 °F 42.2 °F 42.8 °F 93% 30.17 in 9.0 mi SSW 4.6 mph - N/A   Clear
8:35 AM 46.4 °F 45.2 °F 44.6 °F 93% 30.18 in 8.0 mi SSW 3.5 mph - N/A   Clear
8:55 AM 48.2 °F - 44.6 °F 87% 30.18 in 10.0 mi Calm Calm - N/A   Clear
9:15 AM 48.2 °F - 44.6 °F 87% 30.18 in 10.0 mi Calm Calm - N/A   Clear
9:35 AM 48.2 °F - 44.6 °F 87% 30.18 in 9.0 mi Calm Calm - N/A   Clear
9:55 AM 50.0 °F - 44.6 °F 82% 30.19 in 10.0 mi Calm Calm - N/A   Clear
10:15 AM 51.8 °F - 44.6 °F 76% 30.19 in 10.0 mi SSE 3.5 mph - N/A   Clear
10:35 AM 53.6 °F - 44.6 °F 72% 30.18 in 10.0 mi SSE 3.5 mph - N/A   Clear
10:55 AM 55.4 °F - 46.4 °F 72% 30.18 in 10.0 mi SSE 3.5 mph - N/A   Clear
11:15 AM 57.2 °F - 46.4 °F 67% 30.18 in 10.0 mi SE 3.5 mph - N/A   Clear
11:35 AM 57.2 °F - 46.4 °F 67% 30.18 in 10.0 mi ESE 3.5 mph - N/A   Clear
11:55 AM 59.0 °F - 46.4 °F 63% 30.18 in 10.0 mi East 4.6 mph - N/A   Clear
12:15 PM 59.0 °F - 46.4 °F 63% 30.18 in 10.0 mi NNE 4.6 mph - N/A   Clear
12:35 PM 60.8 °F - 46.4 °F 59% 30.17 in 10.0 mi Calm Calm - N/A   Clear
12:55 PM 62.6 °F - 48.2 °F 59% 30.17 in 10.0 mi Calm Calm - N/A   Clear
1:15 PM 64.4 °F - 48.2 °F 56% 30.16 in 10.0 mi SSW 3.5 mph - N/A   Clear
1:35 PM 66.2 °F - 46.4 °F 49% 30.15 in 10.0 mi NE 5.8 mph - N/A   Clear
1:55 PM 68.0 °F - 46.4 °F 46% 30.14 in 10.0 mi NE 3.5 mph - N/A   Clear
2:15 PM 68.0 °F - 50.0 °F 52% 30.14 in 10.0 mi NNW 9.2 mph - N/A   Clear
2:35 PM 68.0 °F - 51.8 °F 56% 30.13 in 10.0 mi North 9.2 mph - N/A   Clear
2:55 PM 68.0 °F - 51.8 °F 56% 30.12 in 10.0 mi North 8.1 mph - N/A   Clear
3:15 PM 71.6 °F - 53.6 °F 53% 30.12 in 10.0 mi North 6.9 mph - N/A   Clear
3:35 PM 71.6 °F - 53.6 °F 53% 30.11 in 10.0 mi North 6.9 mph - N/A   Clear
3:55 PM 73.4 °F - 53.6 °F 50% 30.10 in 10.0 mi North 6.9 mph - N/A   Clear
4:15 PM 73.4 °F - 50.0 °F 44% 30.10 in 10.0 mi North 5.8 mph - N/A   Clear
4:35 PM 73.4 °F - 50.0 °F 44% 30.09 in 10.0 mi NNW 8.1 mph - N/A   Clear
4:55 PM 73.4 °F - 53.6 °F 50% 30.09 in 10.0 mi NNW 8.1 mph - N/A   Clear
5:15 PM 73.4 °F - 51.8 °F 47% 30.08 in 10.0 mi NNW 9.2 mph - N/A   Clear
5:35 PM 71.6 °F - 53.6 °F 53% 30.08 in 10.0 mi NNW 11.5 mph - N/A   Clear
5:55 PM 68.0 °F - 53.6 °F 60% 30.08 in 10.0 mi NNW 13.8 mph - N/A   Clear
6:15 PM 66.2 °F - 51.8 °F 60% 30.09 in 10.0 mi North 12.7 mph - N/A   Clear
6:35 PM 64.4 °F - 50.0 °F 59% 30.09 in 10.0 mi North 11.5 mph - N/A   Clear
6:55 PM 60.8 °F - 46.4 °F 59% 30.09 in 10.0 mi North 13.8 mph - N/A   Clear
7:15 PM 57.2 °F - 46.4 °F 67% 30.10 in 10.0 mi North 10.4 mph - N/A   Clear
7:35 PM 55.4 °F - 44.6 °F 67% 30.10 in 10.0 mi North 9.2 mph - N/A   Clear
7:55 PM 53.6 °F - 46.4 °F 77% 30.10 in 10.0 mi North 9.2 mph - N/A   Clear
8:15 PM 51.8 °F - 48.2 °F 88% 30.10 in 10.0 mi North 8.1 mph - N/A   Clear
8:35 PM 50.0 °F - 46.4 °F 87% 30.11 in 10.0 mi North 8.1 mph - N/A   Clear
8:55 PM 50.0 °F - 46.4 °F 87% 30.11 in 10.0 mi North 6.9 mph - N/A   Clear
9:15 PM 50.0 °F - 46.4 °F 87% 30.12 in 10.0 mi North 6.9 mph - N/A   Clear
9:35 PM 50.0 °F - 46.4 °F 87% 30.12 in 10.0 mi North 5.8 mph - N/A   Clear
9:55 PM 48.2 °F - 44.6 °F 87% 30.12 in 10.0 mi NNW 4.6 mph - N/A   Clear
10:15 PM 46.4 °F 44.3 °F 44.6 °F 93% 30.12 in 10.0 mi NNW 4.6 mph - N/A   Clear
10:35 PM 46.4 °F 44.3 °F 46.4 °F 100% 30.12 in 10.0 mi North 4.6 mph - N/A   Clear
10:55 PM 46.4 °F 43.5 °F 44.6 °F 93% 30.12 in 10.0 mi North 5.8 mph - N/A   Clear
11:15 PM 46.4 °F 42.9 °F 46.4 °F 100% 30.12 in 10.0 mi North 6.9 mph - N/A   Clear
11:35 PM 46.4 °F 43.5 °F 46.4 °F 100% 30.13 in 9.0 mi North 5.8 mph - N/A   Clear
11:55 PM 44.6 °F 42.2 °F 42.8 °F 93% 30.12 in 10.0 mi NNW 4.6 mph - N/A   Clear